FW8870 Weather Reports


Display with metric or nautical units.
time (UTC)temp
F
wind
direction
speed
MPH
gust
MPH
rain 1hr
in
rain 24hr
in
rain mn
in
humidity
%
barometer
mb
20260906191251 0 0.0 0.0 0.00 0.00 0.00 1016.5
20260906190746 0 0.0 0.0 0.00 0.00 0.00 1016.5
20260906190240 71 344 1.0 1.0 0.00 0.00 0.00 60 1016.6
20260906185739 71 344 1.0 1.0 0.00 0.00 0.00 60 1016.6
20260906185238 71 193 2.0 3.0 0.00 0.00 0.00 62 1016.5
20260906184733 70 218 3.0 3.0 0.00 0.00 0.00 64 1016.5
20260906184229 70 166 4.0 5.0 0.00 0.00 0.00 61 1016.3
20260906183724 0 0.0 0.0 0.00 0.00 0.00 1016.5
20260906183221 0 0.0 0.0 0.00 0.00 0.00 1016.6
20260906182720 0 0.0 0.0 0.00 0.00 0.00 1016.5
20260906182216 0 0.0 0.0 0.00 0.00 0.00 1016.8
20260906181711 0 0.0 0.0 0.00 0.00 0.00 1016.6
20260906181208 0 0.0 0.0 0.00 0.00 0.00 1016.9
20260906180702 0 0.0 0.0 0.00 0.00 0.00 1017.2
20260906180157 0 0.0 0.0 0.00 0.00 0.00 1017.3
20260906175655 63 254 2.0 2.0 0.00 0.00 0.00 72 1017.8
20260906175150 63 254 2.0 2.0 0.00 0.00 0.00 72 1018.0
20260906174648 62 339 0.0 0.0 0.00 0.00 0.00 73 1018.0
20260906174143 63 333 0.0 0.0 0.00 0.00 0.00 76 1018.0
20260906173639 0 0.0 0.0 0.00 0.00 0.00 1018.2
20260906173134 0 0.0 0.0 0.00 0.00 0.00 1018.3
20260906172633 0 0.0 0.0 0.00 0.00 0.00 1018.3
20260906172129 0 0.0 0.0 0.00 0.00 0.00 1018.4
20260906171628 0 0.0 0.0 0.00 0.00 0.00 1018.5
20260906171125 0 0.0 0.0 0.00 0.00 0.00 1018.4
20260906170621 0 0.0 0.0 0.00 0.00 0.00 1018.4
20260906170120 0 0.0 0.0 0.00 0.00 0.00 1018.4
20260906165616 0 0.0 0.0 0.00 0.00 0.00 1018.6
20260906165112 0 0.0 0.0 0.00 0.00 0.00 1018.8
20260906164610 0 0.0 0.0 0.00 0.00 0.00 1018.8
20260906164106 0 0.0 0.0 0.00 0.00 0.00 1018.6
20260906163602 0 0.0 0.0 0.00 0.00 0.00 1019.0
20260906163057 55 103 1.0 1.0 0.00 0.00 0.00 88 1018.9
20260906162554 55 103 1.0 1.0 0.00 0.00 0.00 88 1019.1
20260906162049 54 22 0.0 0.0 0.00 0.00 0.00 88 1019.0
20260906161544 54 35 0.0 1.0 0.00 0.00 0.00 91 1019.2
20260906161043 53 89 0.0 1.0 0.00 0.00 0.00 91 1019.1
20260906160542 53 58 0.0 1.0 0.00 0.00 0.00 91 1019.1
20260906160041 53 66 1.0 2.0 0.00 0.00 0.00 92 1019.4
20260906155538 52 342 0.0 0.0 0.00 0.00 0.00 92 1019.2
20260906155035 52 45 1.0 1.0 0.00 0.00 0.00 93 1019.3
20260906154530 51 192 1.0 2.0 0.00 0.00 0.00 93 1019.2
20260906154028 51 123 3.0 3.0 0.00 0.00 0.00 95 1019.3
20260906153527 50 8 0.0 0.0 0.00 0.00 0.00 97 1019.2
20260906153023 49 19 0.0 1.0 0.00 0.00 0.00 98 1019.3
20260906152522 48 19 0.0 0.0 0.00 0.00 0.00 99 1019.5
20260906152022 48 175 3.0 3.0 0.00 0.00 0.00 99 1019.5
20260906151518 48 337 0.0 0.0 0.00 0.00 0.00 99 1019.2
20260906151013 47 357 0.0 0.0 0.00 0.00 0.00 99 1019.6
20260906150508 47 338 0.0 0.0 0.00 0.00 0.00 99 1019.3
20260906150008 47 347 0.0 0.0 0.00 0.00 0.00 99 1019.4
20260906145507 47 53 2.0 2.0 0.00 0.00 0.00 99 1019.3
20260906145002 0 0.0 0.0 0.00 0.00 0.00 1019.2
20260906144456 47 349 0.0 0.0 0.00 0.00 0.00 99 1019.4
20260906143951 47 349 0.0 0.0 0.00 0.00 0.00 99 1019.4
20260906143447 0 0.0 0.0 0.00 0.00 0.00 1019.4
20260906142943 48 1 0.0 0.0 0.00 0.00 0.00 99 1019.4
20260906142437 48 1 0.0 0.0 0.00 0.00 0.00 99 1019.3
20260906141932 48 147 2.0 2.0 0.00 0.00 0.00 99 1019.6
20260906141432 48 147 2.0 2.0 0.00 0.00 0.00 99 1019.1
20260906140926 47 351 0.0 0.0 0.00 0.00 0.00 99 1019.2
20260906140421 47 352 0.0 0.0 0.00 0.00 0.00 99 1019.0
20260906135919 48 332 0.0 0.0 0.00 0.00 0.00 99 1018.8
20260906135418 48 10 0.0 0.0 0.00 0.00 0.00 99 1018.8
20260906134914 47 55 1.0 2.0 0.00 0.00 0.00 99 1018.8
20260906134409 46 351 0.0 0.0 0.00 0.00 0.00 99 1019.0
20260906133904 0 0.0 0.0 0.00 0.00 0.00 1018.6
20260906133400 0 0.0 0.0 0.00 0.00 0.00 1018.9
20260906132855 47 257 1.0 1.0 0.00 0.00 0.00 99 1018.9
20260906132350 47 257 1.0 1.0 0.00 0.00 0.00 99 1018.7
20260906131846 47 331 0.0 0.0 0.00 0.00 0.00 99 1018.9
20260906131341 47 345 0.0 0.0 0.00 0.00 0.00 99 1018.6
20260906130837 48 350 0.0 0.0 0.00 0.00 0.00 99 1018.6
20260906130336 0 0.0 0.0 0.00 0.00 0.00 1018.8
20260906125835 48 359 0.0 0.0 0.00 0.00 0.00 99 1018.8
20260906125332 48 359 0.0 0.0 0.00 0.00 0.00 99 1018.7
20260906124827 48 341 0.0 0.0 0.00 0.00 0.00 99 1018.9
20260906124324 48 359 0.0 0.0 0.00 0.00 0.00 99 1018.8
20260906123822 49 303 0.0 0.0 0.00 0.00 0.00 99 1018.9
20260906123318 49 303 0.0 0.0 0.00 0.00 0.00 99 1018.9
20260906122817 49 346 0.0 0.0 0.00 0.00 0.00 99 1018.9
20260906122312 49 0 0.0 1.0 0.00 0.00 0.00 99 1018.9
20260906121809 49 28 3.0 3.0 0.00 0.00 0.00 99 1018.8
20260906121305 49 10 1.0 1.0 0.00 0.00 0.00 99 1018.8
20260906120801 49 12 1.0 2.0 0.00 0.00 0.00 99 1018.9
20260906120257 49 353 0.0 0.0 0.00 0.00 0.00 98 1018.8
20260906115753 50 356 1.0 2.0 0.00 0.00 0.00 98 1018.9
20260906115248 50 356 1.0 2.0 0.00 0.00 0.00 98 1018.8
20260906114747 50 271 0.0 0.0 0.00 0.00 0.00 97 1018.7
20260906114242 50 109 2.0 2.0 0.00 0.00 0.00 97 1018.9
20260906113738 50 19 0.0 0.0 0.00 0.00 0.00 97 1018.8
20260906113237 50 40 1.0 2.0 0.00 0.00 0.00 97 1018.7
20260906112737 50 40 1.0 2.0 0.00 0.00 0.00 97 1018.7
20260906112233 50 6 0.0 0.0 0.00 0.00 0.00 97 1018.8
20260906111733 50 40 0.0 1.0 0.00 0.00 0.00 97 1018.5
20260906111227 50 343 0.0 0.0 0.00 0.00 0.00 97 1018.8
20260906110722 51 354 0.0 0.0 0.00 0.00 0.00 96 1018.7
20260906110218 51 19 1.0 1.0 0.00 0.00 0.00 96 1018.8
20260906105717 51 356 0.0 0.0 0.00 0.00 0.00 96 1018.8
20260906105214 51 358 0.0 0.0 0.00 0.00 0.00 96 1018.8
20260906104713 51 27 0.0 1.0 0.00 0.00 0.00 97 1018.5
20260906104212 51 3 0.0 1.0 0.00 0.00 0.00 98 1018.5
20260906103710 50 298 1.0 1.0 0.00 0.00 0.00 98 1018.6
20260906103205 50 337 0.0 0.0 0.00 0.00 0.00 98 1018.6
20260906102701 50 334 0.0 0.0 0.00 0.00 0.00 98 1018.8
20260906102159 51 297 1.0 1.0 0.00 0.00 0.00 97 1018.8
20260906101654 51 355 0.0 1.0 0.00 0.00 0.00 97 1018.7
20260906101149 51 9 0.0 1.0 0.00 0.00 0.00 97 1018.8
20260906100644 51 344 0.0 0.0 0.00 0.00 0.00 96 1018.7
20260906100139 52 344 0.0 0.0 0.00 0.00 0.00 95 1018.8
20260906095634 52 353 1.0 1.0 0.00 0.00 0.00 95 1018.5
20260906095129 52 29 0.0 1.0 0.00 0.00 0.00 95 1018.8
20260906094628 52 325 1.0 2.0 0.00 0.00 0.00 95 1018.7
20260906094124 52 7 1.0 1.0 0.00 0.00 0.00 96 1018.8
20260906093620 52 17 1.0 1.0 0.00 0.00 0.00 95 1018.8
20260906093114 53 13 1.0 1.0 0.00 0.00 0.00 94 1018.7
20260906092609 53 273 1.0 2.0 0.00 0.00 0.00 94 1018.7
20260906092104 53 352 0.0 0.0 0.00 0.00 0.00 94 1018.7
20260906091601 53 3 1.0 2.0 0.00 0.00 0.00 94 1018.6
20260906091057 53 4 1.0 2.0 0.00 0.00 0.00 94 1018.6
20260906090556 52 23 0.0 0.0 0.00 0.00 0.00 95 1018.8
20260906090056 53 350 1.0 1.0 0.00 0.00 0.00 95 1018.9
20260906085555 52 350 0.0 0.0 0.00 0.00 0.00 97 1018.8
20260906085050 51 357 0.0 0.0 0.00 0.00 0.00 97 1018.9
20260906084545 52 344 0.0 0.0 0.00 0.00 0.00 98 1019.1
20260906084044 51 349 0.0 1.0 0.00 0.00 0.00 98 1019.0
20260906083540 52 40 0.0 0.0 0.00 0.00 0.00 97 1018.9
20260906083039 53 356 0.0 0.0 0.00 0.00 0.00 95 1019.0
20260906082535 53 356 0.0 0.0 0.00 0.00 0.00 95 1019.0
20260906082030 53 351 1.0 1.0 0.00 0.00 0.00 96 1019.0
20260906081526 52 359 0.0 1.0 0.00 0.00 0.00 99 1018.8
20260906081022 52 342 0.0 0.0 0.00 0.00 0.00 99 1018.7
20260906080518 52 350 0.0 0.0 0.00 0.00 0.00 99 1019.0
20260906080014 52 333 0.0 0.0 0.00 0.00 0.00 99 1019.2
20260906075513 51 338 0.0 0.0 0.00 0.00 0.00 99 1018.9
20260906075008 0 0.0 0.0 0.00 0.00 0.00 1019.4
20260906074503 0 0.0 0.0 0.00 0.00 0.00 1019.0
20260906074001 51 342 0.0 1.0 0.00 0.00 0.00 99 1019.1
20260906073456 51 342 0.0 1.0 0.00 0.00 0.00 99 1019.2
20260906072953 0 0.0 0.0 0.00 0.00 0.00 1019.0
20260906072448 0 0.0 0.0 0.00 0.00 0.00 1019.2
20260906071943 0 0.0 0.0 0.00 0.00 0.00 1019.2
20260906071439 0 0.0 0.0 0.00 0.00 0.00 1019.1
20260906070935 0 0.0 0.0 0.00 0.00 0.00 1019.3
20260906070431 0 0.0 0.0 0.00 0.00 0.00 1019.3
20260906065926 0 0.0 0.0 0.00 0.00 0.00 1019.4
20260906065421 0 0.0 0.0 0.00 0.00 0.00 1019.1
20260906064916 0 0.0 0.0 0.00 0.00 0.00 1019.1
20260906064412 0 0.0 0.0 0.00 0.00 0.00 1019.0
20260906063907 0 0.0 0.0 0.00 0.00 0.00 1019.0
20260906063402 0 0.0 0.0 0.00 0.00 0.00 1019.0
20260906062857 54 337 0.0 0.0 0.00 0.00 0.00 99 1018.9
20260906062356 54 337 0.0 0.0 0.00 0.00 0.00 99 1018.9
20260906061852 54 2 0.0 0.0 0.00 0.00 0.00 99 1018.9
20260906061348 54 351 0.0 1.0 0.00 0.00 0.00 99 1018.8
20260906060842 54 351 0.0 1.0 0.00 0.00 0.00 99 1019.2
20260906060340 0 0.0 0.0 0.00 0.00 0.00 1019.2
20260906055836 0 0.0 0.0 0.00 0.00 0.00 1018.9
20260906055331 53 320 0.0 0.0 0.00 0.00 0.00 99 1019.0
20260906054826 53 320 0.0 0.0 0.00 0.00 0.00 99 1019.0
20260906054321 53 320 0.0 0.0 0.00 0.00 0.00 99 1019.1
20260906053818 53 320 0.0 0.0 0.00 0.00 0.00 99 1019.1
20260906053313 0 0.0 0.0 0.00 0.00 0.00 1019.2
20260906052809 0 0.0 0.0 0.00 0.00 0.00 1019.3
20260906052306 0 0.0 0.0 0.00 0.00 0.00 1019.2
20260906051802 0 0.0 0.0 0.00 0.00 0.00 1019.4
20260906051301 0 0.0 0.0 0.00 0.00 0.00 1019.4
20260906050756 0 0.0 0.0 0.00 0.00 0.00 1019.4
20260906050252 0 0.0 0.0 0.00 0.00 0.00 1019.5
20260906045750 0 0.0 0.0 0.00 0.00 0.00 1019.2
20260906045245 0 0.0 0.0 0.00 0.00 0.00 1019.3
20260906044741 0 0.0 0.0 0.00 0.00 0.00 1019.4
20260906044236 56 318 0.0 0.0 0.00 0.00 0.00 99 1019.5
20260906043732 56 318 0.0 0.0 0.00 0.00 0.00 99 1019.3
20260906043228 56 318 0.0 0.0 0.00 0.00 0.00 99 1019.0
20260906042727 0 0.0 0.0 0.00 0.00 0.00 1019.3
20260906042226 0 0.0 0.0 0.00 0.00 0.00 1019.4
20260906041722 57 327 0.0 0.0 0.00 0.00 0.00 98 1019.1
20260906041217 57 327 0.0 0.0 0.00 0.00 0.00 98 1019.2
20260906040713 58 327 0.0 0.0 0.00 0.00 0.00 97 1019.1
20260906040208 0 0.0 0.0 0.00 0.00 0.00 1019.2
20260906035703 59 327 0.0 0.0 0.00 0.00 0.00 95 1019.1
20260906035159 59 327 0.0 0.0 0.00 0.00 0.00 95 1019.2
20260906034659 0 0.0 0.0 0.00 0.00 0.00 1019.1
20260906034153 0 0.0 0.0 0.00 0.00 0.00 1018.8
20260906033649 0 0.0 0.0 0.00 0.00 0.00 1018.7
20260906033143 0 0.0 0.0 0.00 0.00 0.00 1019.0
20260906032641 0 0.0 0.0 0.00 0.00 0.00 1018.9
20260906032140 0 0.0 0.0 0.00 0.00 0.00 1018.9
20260906031636 62 351 1.0 1.0 0.00 0.00 0.00 89 1018.9
20260906031131 62 351 1.0 1.0 0.00 0.00 0.00 89 1018.7
20260906030630 63 11 0.0 0.0 0.00 0.00 0.00 90 1018.8
20260906030126 63 344 0.0 0.0 0.00 0.00 0.00 88 1018.8
20260906025625 64 331 0.0 0.0 0.00 0.00 0.00 87 1018.6
20260906025124 64 322 0.0 0.0 0.00 0.00 0.00 85 1018.7
20260906024619 65 332 0.0 0.0 0.00 0.00 0.00 82 1018.7
20260906024113 66 296 0.0 0.0 0.00 0.00 0.00 79 1018.7
20260906023609 65 301 0.0 0.0 0.00 0.00 0.00 80 1018.8
20260906023103 65 320 0.0 0.0 0.00 0.00 0.00 84 1018.6
20260906022559 66 320 0.0 0.0 0.00 0.00 0.00 83 1018.6
20260906022054 66 320 0.0 0.0 0.00 0.00 0.00 80 1018.9
20260906021550 67 320 0.0 0.0 0.00 0.00 0.00 80 1018.5
20260906021049 68 326 0.0 0.0 0.00 0.00 0.00 81 1018.6
20260906020549 68 326 0.0 0.0 0.00 0.00 0.00 81 1018.5
20260906020048 69 328 0.0 0.0 0.00 0.00 0.00 76 1018.5
20260906015548 69 328 0.0 0.0 0.00 0.00 0.00 76 1018.5
20260906015047 69 328 0.0 0.0 0.00 0.00 0.00 74 1018.4
20260906014542 69 324 0.0 0.0 0.00 0.00 0.00 78 1018.3
20260906014038 69 324 0.0 0.0 0.00 0.00 0.00 78 1018.6
20260906013533 69 284 0.0 0.0 0.00 0.00 0.00 72 1018.3
20260906013029 69 284 0.0 0.0 0.00 0.00 0.00 72 1018.3
20260906012524 69 329 0.0 0.0 0.00 0.00 0.00 72 1018.3
20260906012023 69 323 0.0 0.0 0.00 0.00 0.00 74 1018.2
20260906011519 69 337 0.0 0.0 0.00 0.00 0.00 71 1018.3
20260906011019 69 273 0.0 0.0 0.00 0.00 0.00 70 1018.1
20260906010514 69 345 0.0 0.0 0.00 0.00 0.00 69 1018.0
20260906010011 69 344 1.0 1.0 0.00 0.00 0.00 71 1018.1
20260906005510 69 339 0.0 0.0 0.00 0.00 0.00 71 1017.8
20260906005009 70 342 0.0 0.0 0.00 0.00 0.00 73 1017.9
20260906004503 69 327 0.0 0.0 0.00 0.00 0.00 68 1017.9
20260906003958 69 327 0.0 0.0 0.00 0.00 0.00 68 1017.8
20260906003453 69 324 0.0 0.0 0.00 0.00 0.00 69 1017.9
20260906002948 70 87 1.0 1.0 0.00 0.00 0.00 68 1017.9
20260906002443 70 328 0.0 0.0 0.00 0.00 0.00 68 1017.9
20260906001938 70 351 0.0 0.0 0.00 0.00 0.00 67 1017.8
20260906001434 70 165 3.0 5.0 0.00 0.00 0.00 68 1017.9
20260906000928 70 300 0.0 0.0 0.00 0.00 0.00 65 1018.1
20260906000425 68 299 0.0 0.0 0.00 0.00 0.00 69 1017.9
20260905235913 68 208 3.0 3.0 0.00 0.00 0.00 69 1018.3
20260905235413 68 217 2.0 2.0 0.00 0.00 0.00 72 1018.1
20260905234908 67 114 1.0 2.0 0.00 0.00 0.00 75 1018.2
20260905234403 66 141 1.0 2.0 0.00 0.00 0.00 76 1018.2
20260905233858 66 151 2.0 2.0 0.00 0.00 0.00 82 1018.1
20260905233353 64 189 3.0 3.0 0.00 0.00 0.00 86 1018.6
20260905232852 64 323 0.0 1.0 0.00 0.00 0.00 90 1018.5
20260905232349 63 188 2.0 2.0 0.00 0.00 0.00 90 1018.3
20260905231844 63 192 2.0 2.0 0.00 0.00 0.00 91 1018.3
20260905231339 63 324 0.0 0.0 0.00 0.00 0.00 91 1018.3
20260905230836 63 277 0.0 0.0 0.00 0.00 0.00 92 1018.2
20260905230333 62 353 1.0 1.0 0.00 0.00 0.00 91 1018.5
20260905225832 62 136 1.0 2.0 0.00 0.00 0.00 91 1018.3
20260905225328 62 204 1.0 2.0 0.00 0.00 0.00 90 1018.1
20260905224828 62 336 1.0 1.0 0.00 0.00 0.00 90 1018.4
20260905224323 62 97 2.0 3.0 0.00 0.00 0.00 88 1018.5
20260905223818 63 193 3.0 3.0 0.00 0.00 0.00 88 1018.4
20260905223316 63 355 0.0 0.0 0.00 0.00 0.00 89 1018.3
20260905222811 63 177 2.0 2.0 0.00 0.00 0.00 89 1018.2
20260905222310 63 6 1.0 1.0 0.00 0.00 0.00 88 1018.1
20260905221806 63 344 0.0 0.0 0.00 0.00 0.00 92 1018.3
20260905221303 63 342 0.0 0.0 0.00 0.00 0.00 94 1018.6
20260905220758 64 337 0.0 0.0 0.00 0.00 0.00 94 1018.2
20260905220254 64 354 0.0 0.0 0.00 0.00 0.00 94 1018.5
20260905215753 64 350 0.0 0.0 0.00 0.00 0.00 92 1018.5
20260905215249 65 353 0.0 0.0 0.00 0.00 0.00 91 1018.6
20260905214744 66 354 0.0 0.0 0.00 0.00 0.00 89 1018.3
20260905214240 67 343 0.0 0.0 0.00 0.00 0.00 87 1018.5
20260905213735 66 330 0.0 0.0 0.00 0.00 0.00 83 1018.5
20260905213231 67 5 0.0 0.0 0.00 0.00 0.00 84 1018.5
20260905212726 67 326 0.0 0.0 0.00 0.00 0.00 81 1018.5
20260905212225 67 326 0.0 0.0 0.00 0.00 0.00 80 1018.3
20260905211725 68 330 0.0 0.0 0.00 0.00 0.00 78 1018.6
20260905211221 68 335 0.0 0.0 0.00 0.00 0.00 77 1018.4
20260905210717 68 318 0.0 0.0 0.00 0.00 0.00 69 1018.3
20260905210212 68 318 0.0 0.0 0.00 0.00 0.00 69 1018.1
20260905205711 68 336 0.0 0.0 0.00 0.00 0.00 71 1018.3
20260905205211 68 312 0.0 0.0 0.00 0.00 0.00 71 1018.4
20260905204710 68 334 0.0 1.0 0.00 0.00 0.00 76 1018.5
20260905204206 69 347 0.0 0.0 0.00 0.00 0.00 68 1018.3
20260905203700 69 325 0.0 0.0 0.00 0.00 0.00 70 1018.2
20260905203155 70 1 0.0 0.0 0.00 0.00 0.00 68 1018.0
20260905202651 69 328 0.0 0.0 0.00 0.00 0.00 65 1018.3
20260905202146 70 219 4.0 5.0 0.00 0.00 0.00 65 1018.1
20260905201642 71 83 2.0 2.0 0.00 0.00 0.00 63 1018.2
20260905201136 72 265 2.0 3.0 0.00 0.00 0.00 63 1018.1
20260905200632 72 331 0.0 0.0 0.00 0.00 0.00 63 1018.2
20260905200127 72 295 0.0 0.0 0.00 0.00 0.00 63 1018.2
20260905195625 71 300 1.0 2.0 0.00 0.00 0.00 67 1018.3
20260905195121 71 309 0.0 1.0 0.00 0.00 0.00 68 1018.3
20260905194621 71 19 3.0 6.0 0.00 0.00 0.00 64 1018.2
20260905194120 71 313 2.0 3.0 0.00 0.00 0.00 65 1018.3
20260905193615 71 327 1.0 1.0 0.00 0.00 0.00 69 1018.3
20260905193110 70 325 1.0 2.0 0.00 0.00 0.00 66 1018.2
20260905192606 70 265 1.0 1.0 0.00 0.00 0.00 68 1018.5
20260905192102 70 2 5.0 7.0 0.00 0.00 0.00 66 1018.5